Location: Melbourne
(37.8666°S, 145.1333°E)
Time: 00:49:19
(UTC+11:00)

Daily predictions for brighter satellites

Satellite Brightness Start Highest point End
(mag) Time Altitude Azimuth Time Altitude Azimuth Time Altitude Azimuth
Cosmos 2333 Rocket 4.0 00:01:18 10° S 00:05:46 22° SE 00:07:36 19° E
Cosmos 1486 Rocket 4.0 00:12:18 77° W 00:12:24 77° WSW 00:17:47 10° SSE
Meteor 1-11 4.2 00:10:05 10° SSW 00:15:52 70° W 00:16:09 68° WNW
Lacrosse 5 2.7 00:12:39 10° SSW 00:17:34 43° SE 00:18:10 42° ESE
Cosmos 2360 Rocket 2.4 00:14:06 10° SSW 00:19:42 59° WNW 00:19:42 59° WNW
Cosmos 2322 Rocket 3.9 00:16:21 10° SW 00:20:24 20° W 00:20:55 20° WNW
Meteor 1-4 Rocket 4.2 00:21:51 35° SSW 00:21:51 35° SSW 00:24:24 10° S
IGS 5A 4.3 00:19:37 10° S 00:22:48 48° S 00:22:48 48° S
Cosmos 1626 4.0 00:25:43 10° S 00:27:48 30° SSE 00:27:48 30° SSE
Cosmos 1354 Rocket 4.2 00:31:19 69° SE 00:31:19 69° SE 00:36:05 10° SSE
CARTOSAT-1 4.5 00:29:24 10° S 00:32:59 46° SW 00:32:59 46° SW
Cosmos 1340 Rocket 4.2 00:31:20 10° S 00:33:58 39° S 00:33:58 39° S
Cosmos 2228 Rocket 4.2 00:38:42 39° SE 00:38:42 39° SE 00:41:44 10° SSE
CZ-2C R/B 2.9 00:38:38 63° W 00:38:38 63° W 00:44:13 10° SSW
COSMOS 2428 2.6 00:33:06 10° SSW 00:38:45 86° SSW 00:38:45 86° SSW
Cosmos 1655 Rocket 4.5 00:33:45 10° S 00:39:49 47° E 00:40:18 46° E
Cosmos 2237 Rocket 3.4 00:39:40 10° S 00:44:51 33° ESE 00:45:52 31° E
Cosmos 332 Rocket 4.2 00:40:51 10° SSW 00:44:59 60° S 00:44:59 60° S
Cosmos 2237 4.5 00:43:01 10° SSW 00:48:15 59° W 00:48:15 59° W
Cosmos 2142 Rocket 4.4 00:48:40 80° N 00:49:05 90° N 00:55:35 10° S
H-2A R/B 4.1 00:53:26 29° SW 00:53:26 29° SW 00:55:36 10° SSW
MOS 1-B Rocket 4.0 00:46:17 10° SSE 00:53:41 87° ENE 00:54:21 74° N
Cosmos 1092 Rocket 4.0 00:48:16 10° SSW 00:54:24 63° W 00:54:39 63° WNW
Cosmos 2219 4.1 00:57:09 37° W 00:58:15 41° WSW 01:03:38 10° S
CENTAUR R/B 2.4 00:52:49 10° SW 00:58:14 64° W 00:58:14 64° W
Sich 1 4.3 00:57:18 10° SSW 01:00:10 36° SW 01:00:10 36° SW
ATLAS CENTAUR R/B 4.1 01:05:13 10° ESE 01:05:13 10° ESE 01:05:15 10° ESE
Cosmos 1151 Rocket 4.5 01:04:43 33° SE 01:04:43 33° SE 01:07:23 10° SSE
Cosmos 2297 Rocket 2.9 01:06:01 44° E 01:06:01 44° E 01:10:35 10° SE
SeaSat 1 3.1 01:08:36 47° WSW 01:08:36 47° WSW 01:12:24 10° SSW
Meteor 2-20 4.4 01:01:18 10° S 01:07:32 75° E 01:07:42 74° E
Cosmos 2082 4.0 01:09:03 58° ESE 01:09:03 58° ESE 01:14:01 10° SSE
Meteor 2-2 Rocket 4.2 01:08:44 75° SE 01:08:44 75° SE 01:14:07 10° SSE
Helios 1A Rocket 4.3 01:10:28 38° SSW 01:10:28 38° SSW 01:13:05 10° SSW
Geosat 4.4 01:04:29 10° SSE 01:08:36 55° SE 01:08:36 55° SE
Cosmos 2227 Rocket 2.3 01:10:52 67° ESE 01:10:52 67° ESE 01:16:01 10° SSE
Terra 3.5 01:08:26 10° SSW 01:12:16 24° WSW 01:12:39 24° WSW
Cosmos 2219 Rocket 2.2 01:07:02 10° SSW 01:12:21 78° SSW 01:12:21 78° SSW
Cosmos 968 Rocket 4.2 01:19:51 45° ESE 01:19:51 45° ESE 01:23:58 10° SSE
Cosmos 1980 3.8 01:15:17 10° SSW 01:20:55 72° ESE 01:20:55 72° ESE
Cosmos 2026 Rocket 4.1 01:20:36 10° SSW 01:26:44 62° W 01:26:51 62° W
PSLV R/B 4.4 01:27:56 50° SSE 01:27:56 50° SSE 01:31:34 10° S
H-2A R/B 4.5 01:27:30 10° SSW 01:30:26 15° WSW 01:32:35 12° W
Cosmos 2279 Rocket 4.0 01:32:28 64° W 01:32:47 65° W 01:39:02 10° S
Meteor 2-20 Rocket 4.3 01:27:06 10° S 01:33:21 87° W 01:33:30 85° NW
Cosmos 371 Rocket 4.4 01:30:46 10° SSW 01:34:07 37° WSW 01:34:07 37° WSW
Aureole 1 Rocket 4.4 01:36:23 10° S 01:41:30 36° ESE 01:41:46 36° ESE
Cosmos 2266 Rocket 4.2 01:36:00 10° S 01:42:14 59° E 01:42:57 56° ENE
Cosmos 2333 Rocket 2.7 01:44:43 10° SSW 01:49:35 50° WSW 01:49:35 50° WSW
In-Cosmos 22 Rocket 4.2 01:44:46 10° S 01:50:38 83° E 01:50:45 82° ENE
Cosmos 540 Rocket 4.4 01:46:14 10° SSW 01:49:53 37° WSW 01:49:53 37° WSW
CZ-2C R/B 3.6 01:46:43 10° SSE 01:51:57 52° E 01:51:57 52° E
USA 215 4.1 01:46:15 10° ENE 01:52:28 47° SE 01:58:45 10° SW
Cosmos 1726 4.1 01:55:50 28° SSW 01:55:50 28° SSW 01:57:52 10° S
Cosmos 1818 4.3 01:59:40 42° E 01:59:40 42° E 02:04:06 10° SE
Lacrosse 5 3.9 01:55:57 10° WSW 01:57:19 17° WSW 01:57:19 17° WSW
Resurs 1-4 Rocket 4.2 01:57:27 14° ENE 02:00:22 21° ESE 02:04:16 10° SSE
Cosmos 1869 Rocket 4.3 01:58:07 10° S 02:01:38 52° SSE 02:01:38 52° SSE
SL-16 R/B 2.4 01:57:41 10° SSW 02:03:24 64° ESE 02:04:11 57° ENE
NPP 3.7 02:03:31 66° E 02:03:52 68° ESE 02:09:17 10° S
ALOS 2 3.5 02:01:58 10° S 02:05:28 43° SW 02:05:28 43° SW
CZ-4B R/B 3.8 02:03:32 10° SSE 02:04:51 22° SSE 02:04:51 22° SSE
Cosmos 773 Rocket 4.2 02:07:01 10° SSW 02:12:18 62° ESE 02:12:43 60° E
Cosmos 304 Rocket 4.3 02:09:28 10° SSW 02:13:16 52° SW 02:13:16 52° SW
Cosmos 1707 Rocket 4.1 02:16:29 55° S 02:16:29 55° S 02:19:58 10° S
Cosmos 1892 3.9 02:18:33 10° S 02:21:14 42° S 02:21:14 42° S
Cosmos 2237 Rocket 3.4 02:23:48 10° SW 02:27:39 29° W 02:27:39 29° W
Cosmos 1733 Rocket 4.1 02:26:14 10° S 02:30:25 38° ESE 02:30:49 37° E
CZ-2D R/B 3.0 02:35:10 29° ENE 02:37:14 43° ESE 02:42:13 10° S
ATLAS 5 CENTAUR R/B 4.3 02:29:40 34° NNW 02:39:07 77° NE 02:45:05 10° SE
Cosmos 2242 Rocket 3.7 02:39:43 71° S 02:39:43 71° S 02:43:46 10° S
ATLAS CENTAUR R/B 3.0 02:41:30 24° SW 02:41:30 24° SW 02:44:27 10° S
Landsat 5 4.3 02:37:21 10° S 02:41:07 45° SW 02:41:07 45° SW
Cosmos 1455 3.3 02:42:53 41° SSW 02:42:53 41° SSW 02:45:35 10° S
Cosmos 923 Rocket 4.0 02:38:40 10° SSW 02:44:06 85° ESE 02:44:54 66° NNE
Cosmos 2297 Rocket 3.8 02:47:48 21° W 02:49:25 24° SW 02:53:58 10° S
ERS-1 4.4 02:49:20 65° NNE 02:50:04 83° ESE 02:55:14 10° S
AQUA 4.2 02:51:14 51° WSW 02:51:14 51° WSW 02:55:29 10° SSW
IRS-1C 4.1 02:53:46 59° WNW 02:53:59 59° W 02:59:20 10° SSW
Cosmos 2227 Rocket 4.2 02:52:39 13° W 02:54:58 17° SW 02:58:33 10° SSW
Cosmos 2227 4.1 02:57:05 61° NW 02:58:09 82° WSW 03:03:59 10° SSE
ADEOS 3.5 02:59:37 64° NNW 03:00:20 75° WNW 03:05:39 10° SSW
Cosmos 1603 3.9 02:56:02 10° SSW 03:01:51 71° ESE 03:04:56 29° NE
Cosmos 1356 4.2 03:00:36 10° S 03:03:22 50° S 03:03:22 50° S
Cosmos 292 Rocket 3.7 02:59:19 10° SSW 03:04:15 87° ESE 03:05:07 61° NNE
ARIANE 5 R/B 2.5 03:04:08 54° NNE 03:05:22 89° W 03:10:37 10° SSW
SL-08 R/B 4.5 03:01:19 10° S 03:07:41 84° E 03:10:21 38° N
Cosmos 2263 Rocket 3.3 03:06:22 26° NE 03:08:27 34° ENE 03:13:31 10° SE
Cosmos 1680 Rocket 3.4 03:04:14 10° SSW 03:09:36 75° WNW 03:10:38 57° N
Cosmos 44 Rocket 4.2 03:05:39 10° SW 03:09:19 36° W 03:09:19 36° W
IRS-1D 3.5 03:13:42 52° N 03:15:00 74° WNW 03:20:27 10° SSW
PSLV R/B 3.8 03:10:50 10° SSE 03:15:03 81° ENE 03:15:24 73° NNE
Cosmos 1408 2.7 03:14:58 10° S 03:18:19 71° SSW 03:18:19 71° SSW
Cosmos 2150 Rocket 4.2 03:19:39 43° NNE 03:21:13 64° ENE 03:26:23 10° SSE
Cosmos 1943 4.2 03:15:58 10° S 03:21:27 46° ESE 03:26:50 10° NE
Cosmos 1400 Rocket 3.8 03:17:25 10° S 03:21:27 46° ESE 03:23:17 28° NE
Cosmos 1862 3.2 03:21:27 10° S 03:25:37 81° W 03:26:01 70° NNW
Cosmos 1937 Rocket 3.8 03:24:49 37° NNE 03:26:40 59° ENE 03:31:52 10° SSE
Cosmos 1553 Rocket 4.1 03:26:59 40° NW 03:28:58 58° W 03:35:09 10° S
Cosmos 2112 Rocket 4.1 03:25:42 10° SSW 03:30:57 55° WNW 03:32:09 45° NNW
Cosmos 1898 Rocket 3.5 03:30:37 45° NNW 03:32:21 86° WSW 03:37:45 10° SSE
Tiangong 1 3.7 03:33:43 12° ENE 03:33:43 12° ENE 03:34:15 10° ENE
UNKNOWN OBJECT B 2.8 03:32:04 48° NNE 03:33:07 81° ESE 03:37:13 10° S
Cosmos 2298 Rocket 4.0 03:33:29 44° NNW 03:35:15 82° WSW 03:40:39 10° SSE
USA 215 3.4 03:30:16 16° NNE 03:35:23 50° NW 03:41:47 10° SW
Cosmos 1703 Rocket 3.5 03:36:26 47° N 03:37:40 84° E 03:42:05 10° S
BREEZE-M DEB (TANK) 2.3 03:39:03 56° N 03:39:36 68° NE 03:46:36 10° SE
Resurs 1-4 Rocket 2.4 03:38:32 40° NW 03:39:48 47° W 03:44:59 10° SSW
Sich 1 Rocket 3.6 03:37:49 10° SSW 03:42:27 67° W 03:43:50 43° NNW
Cosmos 2084 3.7 03:38:30 10° SW 03:43:07 51° WNW 03:43:48 46° NNW
ERS-2 3.0 03:41:12 20° NE 03:43:31 49° ESE 03:47:10 10° S
CZ-2D R/B 3.4 03:42:16 36° NNE 03:43:54 87° ESE 03:48:01 10° S
ISS -2.7 03:45:42 44° WSW 03:46:08 47° SW 03:49:23 10° SE
SL-16 R/B 4.0 03:43:33 10° WSW 03:46:02 15° W 03:46:02 15° W
Cosmos 1825 3.1 03:45:07 10° SSW 03:48:26 33° W 03:48:26 33° W
Cosmos 44 4.2 03:45:45 10° SW 03:50:16 31° WNW 03:50:16 31° WNW
Meteor 2-10 Rocket 3.7 03:47:37 25° N 03:50:33 68° E 03:55:36 10° SSE
Cosmos 1709 Rocket 4.2 03:45:24 10° S 03:51:35 72° E 03:57:39 10° NNE
ADEOS II 3.8 03:53:43 10° NE 03:58:25 34° ESE 04:03:11 10° S
Cosmos 1315 Rocket 2.9 03:55:47 10° S 03:59:47 72° E 04:02:33 19° NNE
ORS 1 (USA 231) 4.5 03:59:49 47° W 04:00:38 76° NNW 04:03:53 10° ENE
Cosmos 1745 Rocket 4.5 03:56:16 10° SSW 04:02:03 41° W 04:04:54 26° NW
USA 229 DEB 4.0 03:55:53 10° SW 04:02:32 46° WNW 04:09:03 10° N
USA 229 3.9 03:56:00 10° SW 04:02:40 47° WNW 04:09:11 10° N
Cosmos 1782 4.2 04:00:36 13° NNE 04:03:50 36° E 04:07:35 10° SSE
Cosmos 990 Rocket 4.0 04:02:41 29° NNW 04:05:29 78° WSW 04:10:50 10° SSE
OTV 4 2.9 04:12:41 13° NNE 04:12:41 13° NNE 04:13:07 10° NE
Cosmos 2315 Rocket 4.0 04:07:28 20° NNW 04:12:02 76° W 04:18:31 10° S
SL-16 R/B 3.7 04:07:06 10° SSE 04:13:00 40° E 04:18:48 10° NNE
ATLAS 3B CENTAUR R/B 3.8 04:11:48 14° N 04:14:38 21° NE 04:21:42 10° E
Cosmos 1242 Rocket 3.6 04:14:33 26° W 04:15:15 28° WSW 04:18:23 10° SSW
CZ-2D R/B 3.4 04:16:30 20° WNW 04:17:29 21° W 04:21:24 10° SW
NOSS 3-1 (A) 3.7 04:12:23 10° SSW 04:18:49 71° SE 04:24:35 10° NE
SL-8 R/B 3.8 04:16:46 26° NW 04:19:29 69° NE 04:24:21 10° ESE
Okean O Rocket 1.6 04:15:17 11° N 04:19:35 81° WNW 04:24:05 10° SSW
ADEOS Rocket 3.6 04:15:21 10° N 04:22:57 66° W 04:30:47 10° SSW
SL-08 R/B 3.5 04:21:28 10° S 04:26:15 60° WSW 04:29:29 20° NNW
Okean-O 4.2 04:26:48 10° NE 04:30:57 38° ESE 04:35:08 10° S
Meteor 1-25 Rocket 4.3 04:25:32 10° S 04:31:23 82° W 04:37:15 10° N
CZ-4B R/B 3.0 04:29:33 10° N 04:33:45 72° WNW 04:38:14 10° SSW
Cosmos 1674 Rocket 4.1 04:34:11 10° N 04:38:28 60° E 04:42:48 10° SSE
Aureole 3 Rocket 3.7 04:36:19 10° NNE 04:39:13 39° E 04:42:36 10° SSE
Okean 2 Rocket 3.7 04:35:16 10° SSW 04:39:27 38° W 04:42:44 15° NNW
Cosmos 2151 Rocket 3.6 04:35:55 10° S 04:40:33 87° W 04:45:07 10° N
COSMOS 2406 4.3 04:41:53 10° SSW 04:47:30 50° ESE 04:53:01 10° NE
Cosmos 2263 Rocket 3.3 04:48:05 13° WNW 04:52:20 31° WSW 04:57:20 10° S
GP-B 4.0 04:50:41 10° SSW 04:54:45 33° W 04:58:33 11° NW
Meteor 1-10 Rocket 4.3 04:49:56 10° NNW 04:55:27 66° W 05:01:05 10° S
Meteor 1-31 Rocket 4.0 04:53:57 10° NNE 04:57:42 47° ESE 05:01:32 10° S
Meteor 1-27 Rocket 4.0 04:53:21 10° N 04:59:00 77° E 05:04:51 10° SSE
PSLV R/B 3.7 04:56:22 10° N 05:00:42 59° W 05:05:05 10° SSW
Okean 1 Rocket 3.9 04:57:45 10° S 05:02:16 57° E 05:06:40 10° NNE
Cosmos 2074 Rocket 4.0 04:56:08 10° S 05:02:30 73° W 05:08:46 10° N
Iridium 2 4.1 05:00:45 10° S 05:04:40 69° E 05:08:30 10° N
Cosmos 1943 4.4 05:00:51 10° SW 05:05:06 22° W 05:09:20 10° NNW
Cosmos 1461 4.2 05:03:28 10° WSW 05:07:15 24° WNW 05:10:58 10° NNW
UNK 3.9 05:03:00 10° S 05:07:42 61° WSW 05:12:20 10° NNW
Tiangong 1 0.9 05:05:23 11° WNW 05:08:15 83° SSW 05:11:16 10° ESE
Cosmos 1844 Rocket 2.8 05:09:07 10° NNW 05:14:47 87° ENE 05:20:29 10° SSE
CZ-4B R/B 4.1 05:11:28 10° NNW 05:15:58 28° W 05:20:33 10° SW
Cosmos 1300 Rocket 3.6 05:15:23 10° SSW 05:19:53 69° W 05:24:20 10° N
Cosmos 1602 3.8 05:16:29 10° S 05:20:28 81° W 05:24:25 10° N
NOSS 3-1 (C) 4.2 05:15:54 10° SW 05:21:04 28° WNW 05:25:53 10° NNW
Cosmos 1125 Rocket 4.1 05:16:52 10° NW 05:21:48 42° WSW 05:26:48 10° S
